Location: Observatoire
(46.1952°N, 5.3391°E)
Time: 17:30:16
(UTC+01:00)

Injun/Solrad 3 - Pass Details

Date: 21 February 2026
Orbit: 872 x 984 km, 66.8° (Epoch: 8 March)

Event Time Altitude Azimuth Distance (km) Brightness Sun altitude
Rises 21:35:27 0° 312° (NW) 3,598 11.9 -35.1°
Reaches altitude 10° 21:39:00 10° 292° (WNW) 2,671 11.1 -35.6°
Maximum altitude 21:42:32 16° 257° (WSW) 2,288 10.4 -36.2°
Drops below altitude 10° 21:46:06 10° 222° (SW) 2,700 10.4 -36.7°
Enters shadow 21:46:36 - 218° (SW) 2,808 10.5 -36.8°
